Location: Dealu Mare
(46.0500°N, 22.8167°E)
Time: 21:46:28
(UTC+00:00)

Cosmos 1140 Rocket - Pass Details

Date: 15 January 2026
Orbit: 739 x 763 km, 74.1° (Epoch: 10 February)

Event Time Altitude Azimuth Distance (km) Brightness Sun altitude
Rises 04:53:36 0° 211° (SSW) 3,161 6.6 -12.4°
Reaches altitude 10° 04:55:58 10° 215° (SW) 2,243 5.8 -12.1°
Maximum altitude 05:00:59 59° 295° (WNW) 855 3.4 -11.2°
Drops below altitude 10° 05:06:03 10° 15° (NNE) 2,268 5.9 -10.4°
Sets 05:08:28 0° 19° (NNE) 3,199 6.7 -10.0°
